• In Uzbekistan
  • List of Countries
  • For 7 days
  • Water Temperature
  • Satellite Maps
  • Weather Map
  • Weather Widgets
  • user-avatar
    Login

    Hourly Weather Balapur

    Today, 21 June, Thursday

    Time Temperature Precipitation Wind Pressure Humidity
    00:00 +34°C° 1.9 mm 4 mps 729 mmHg 59%
    01:00 +34°C° 1.9 mm 5 mps 729 mmHg 62%
    02:00 +33°C° 1.9 mm 5 mps 729 mmHg 64%
    03:00 +33°C° 0.9 mm 5 mps 729 mmHg 64%
    04:00 +33°C° 0.9 mm 5 mps 729 mmHg 65%
    05:00 +32°C° 0 mm 5 mps 729 mmHg 69%
    06:00 +32°C° 0.2 mm 5 mps 730 mmHg 66%
    07:00 +33°C° 0.2 mm 5 mps 730 mmHg 63%
    08:00 +34°C° 0.2 mm 5 mps 730 mmHg 60%
    09:00 +35°C° 0.5 mm 4 mps 730 mmHg 55%
    10:00 +37°C° 0.5 mm 4 mps 730 mmHg 50%
    11:00 +39°C° 0 mm 3 mps 730 mmHg 39%
    12:00 +39°C° 0 mm 3 mps 729 mmHg 40%
    13:00 +39°C° 0 mm 2 mps 729 mmHg 40%
    14:00 +39°C° 0 mm 1 mps 729 mmHg 40%
    15:00 +39°C° 0.1 mm 1 mps 728 mmHg 40%
    16:00 +39°C° 0.1 mm 1 mps 728 mmHg 40%
    17:00 +39°C° 0.1 mm 1 mps 728 mmHg 40%
    18:00 +38°C° 0.1 mm 2 mps 728 mmHg 42%
    19:00 +38°C° 0.1 mm 2 mps 728 mmHg 44%
    20:00 +37°C° 0.1 mm 2 mps 728 mmHg 47%
    21:00 +37°C° 0 mm 3 mps 728 mmHg 48%
    22:00 +36°C° 0 mm 3 mps 729 mmHg 50%
    23:00 +36°C° 0 mm 3 mps 729 mmHg 52%

    Tomorrow, 22 June, Friday

    Time Temperature Precipitation Wind Pressure Humidity
    00:00 +35°C° 0.1 mm 4 mps 729 mmHg 54%
    01:00 +35°C° 0.1 mm 5 mps 729 mmHg 57%
    02:00 +34°C° 0.1 mm 6 mps 728 mmHg 60%
    03:00 +33°C° 0.1 mm 6 mps 728 mmHg 63%
    04:00 +32°C° 0.1 mm 6 mps 728 mmHg 67%
    05:00 +30°C° 0.1 mm 7 mps 728 mmHg 70%
    06:00 +32°C° 0.4 mm 6 mps 729 mmHg 68%
    07:00 +33°C° 0.4 mm 5 mps 729 mmHg 66%
    08:00 +33°C° 0.4 mm 3 mps 730 mmHg 64%
    09:00 +34°C° 0.4 mm 3 mps 730 mmHg 62%
    10:00 +34°C° 0.4 mm 3 mps 730 mmHg 60%
    11:00 +35°C° 0.4 mm 3 mps 730 mmHg 58%
    12:00 +36°C° 0.1 mm 3 mps 729 mmHg 53%
    13:00 +38°C° 0.1 mm 3 mps 729 mmHg 48%
    14:00 +39°C° 0.1 mm 3 mps 728 mmHg 43%
    15:00 +39°C° 0 mm 3 mps 728 mmHg 42%
    16:00 +39°C° 0 mm 3 mps 727 mmHg 41%
    17:00 +40°C° 0 mm 3 mps 727 mmHg 39%
    18:00 +39°C° 0 mm 3 mps 727 mmHg 42%
    19:00 +38°C° 0 mm 4 mps 727 mmHg 44%
    20:00 +38°C° 0 mm 4 mps 728 mmHg 47%
    21:00 +37°C° 0.4 mm 5 mps 728 mmHg 51%
    22:00 +36°C° 0.4 mm 6 mps 728 mmHg 55%
    23:00 +35°C° 0.4 mm 7 mps 729 mmHg 59%

    Day after tomorrow, 23 June, Saturday

    Time Temperature Precipitation Wind Pressure Humidity
    00:00 +34°C° 2.6 mm 7 mps 728 mmHg 63%
    01:00 +33°C° 2.6 mm 6 mps 728 mmHg 66%
    02:00 +32°C° 2.6 mm 6 mps 728 mmHg 70%
    03:00 +32°C° 1.3 mm 6 mps 728 mmHg 71%
    04:00 +30°C° 1.3 mm 5 mps 728 mmHg 73%
    05:00 +30°C° 1.3 mm 5 mps 728 mmHg 74%
    06:00 +30°C° 0 mm 5 mps 729 mmHg 72%
    07:00 +32°C° 0 mm 5 mps 729 mmHg 71%
    08:00 +32°C° 0 mm 6 mps 729 mmHg 69%
    09:00 +33°C° 0.2 mm 5 mps 729 mmHg 65%
    10:00 +34°C° 0.2 mm 4 mps 730 mmHg 61%
    11:00 +35°C° 0.2 mm 3 mps 730 mmHg 57%
    12:00 +35°C° 0 mm 3 mps 729 mmHg 53%
    13:00 +36°C° 0 mm 3 mps 729 mmHg 50%
    14:00 +37°C° 0 mm 3 mps 728 mmHg 47%
    15:00 +37°C° 0 mm 3 mps 728 mmHg 46%
    16:00 +38°C° 0 mm 3 mps 728 mmHg 44%
    17:00 +38°C° 0 mm 3 mps 727 mmHg 43%
    18:00 +37°C° 0 mm 3 mps 728 mmHg 46%
    19:00 +37°C° 0 mm 3 mps 728 mmHg 48%
    20:00 +36°C° 0 mm 3 mps 729 mmHg 51%
    21:00 +35°C° 0.1 mm 4 mps 729 mmHg 53%
    22:00 +35°C° 0.1 mm 4 mps 729 mmHg 55%
    23:00 +34°C° 0.1 mm 5 mps 729 mmHg 57%

    24 June, Sunday

    Time Temperature Precipitation Wind Pressure Humidity
    00:00 +34°C° 0.5 mm 6 mps 728 mmHg 61%
    01:00 +33°C° 0.5 mm 6 mps 728 mmHg 64%
    02:00 +32°C° 0.5 mm 6 mps 728 mmHg 67%
    03:00 +32°C° 1.7 mm 6 mps 728 mmHg 69%
    04:00 +30°C° 1.7 mm 6 mps 728 mmHg 70%
    05:00 +30°C° 1.7 mm 5 mps 728 mmHg 72%
    06:00 +30°C° 1 mm 5 mps 729 mmHg 70%
    07:00 +32°C° 1 mm 5 mps 729 mmHg 68%
    08:00 +32°C° 1 mm 5 mps 730 mmHg 66%
    09:00 +34°C° 0 mm 5 mps 730 mmHg 61%
    10:00 +35°C° 0 mm 5 mps 730 mmHg 57%
    11:00 +36°C° 0 mm 5 mps 730 mmHg 52%
    12:00 +37°C° 0.1 mm 5 mps 729 mmHg 50%
    13:00 +38°C° 0.1 mm 4 mps 729 mmHg 47%
    14:00 +40°C° 0.1 mm 4 mps 728 mmHg 44%
    15:00 +40°C° 0 mm 4 mps 727 mmHg 44%
    16:00 +38°C° 0 mm 4 mps 727 mmHg 44%
    17:00 +39°C° 0 mm 5 mps 727 mmHg 44%
    18:00 +38°C° 0 mm 4 mps 727 mmHg 46%
    19:00 +37°C° 0 mm 4 mps 728 mmHg 48%
    20:00 +37°C° 0 mm 3 mps 729 mmHg 49%
    21:00 +36°C° 0 mm 4 mps 729 mmHg 52%
    22:00 +35°C° 0 mm 5 mps 729 mmHg 55%
    23:00 +34°C° 0 mm 6 mps 729 mmHg 58%

    25 June, Monday

    Time Temperature Precipitation Wind Pressure Humidity
    00:00 +33°C° 0.7 mm 6 mps 729 mmHg 61%
    01:00 +33°C° 0.7 mm 6 mps 729 mmHg 64%
    02:00 +32°C° 0.7 mm 6 mps 728 mmHg 67%
    03:00 +30°C° 0.7 mm 6 mps 728 mmHg 68%
    04:00 +30°C° 0.7 mm 6 mps 729 mmHg 69%
    05:00 +30°C° 0.7 mm 6 mps 729 mmHg 70%
    06:00 +30°C° 0.1 mm 5 mps 729 mmHg 70%
    07:00 +30°C° 0.1 mm 5 mps 730 mmHg 69%
    08:00 +30°C° 0.1 mm 5 mps 730 mmHg 68%
    09:00 +32°C° 0 mm 5 mps 730 mmHg 65%
    10:00 +33°C° 0 mm 5 mps 730 mmHg 61%
    11:00 +34°C° 0 mm 5 mps 730 mmHg 57%
    12:00 +35°C° 0 mm 5 mps 729 mmHg 53%
    13:00 +36°C° 0 mm 5 mps 728 mmHg 50%
    14:00 +37°C° 0 mm 5 mps 728 mmHg 47%
    15:00 +37°C° 0 mm 5 mps 728 mmHg 46%
    16:00 +37°C° 0 mm 4 mps 727 mmHg 45%
    17:00 +37°C° 0 mm 4 mps 727 mmHg 44%
    18:00 +37°C° 0 mm 4 mps 728 mmHg 46%
    19:00 +36°C° 0 mm 4 mps 728 mmHg 49%
    20:00 +35°C° 0 mm 4 mps 728 mmHg 51%
    21:00 +35°C° 0 mm 5 mps 728 mmHg 54%
    22:00 +34°C° 0 mm 6 mps 729 mmHg 57%
    23:00 +33°C° 0 mm 7 mps 729 mmHg 60%

    26 June, Tuesday

    Time Temperature Precipitation Wind Pressure Humidity
    00:00 +33°C° 0 mm 7 mps 728 mmHg 62%
    01:00 +32°C° 0 mm 7 mps 728 mmHg 63%
    02:00 +32°C° 0 mm 6 mps 728 mmHg 64%
    03:00 +30°C° 0 mm 6 mps 728 mmHg 65%
    04:00 +30°C° 0 mm 6 mps 728 mmHg 65%
    05:00 +30°C° 0 mm 6 mps 728 mmHg 66%
    06:00 +30°C° 0 mm 6 mps 729 mmHg 65%
    07:00 +30°C° 0 mm 6 mps 730 mmHg 64%
    08:00 +32°C° 0 mm 6 mps 730 mmHg 63%
    09:00 +33°C° 0 mm 6 mps 730 mmHg 59%
    10:00 +34°C° 0 mm 6 mps 730 mmHg 55%
    11:00 +35°C° 0 mm 6 mps 730 mmHg 51%
    12:00 +36°C° 0.1 mm 5 mps 729 mmHg 49%
    13:00 +36°C° 0.1 mm 5 mps 729 mmHg 46%
    14:00 +37°C° 0.1 mm 5 mps 728 mmHg 44%
    15:00 +37°C° 0.1 mm 5 mps 728 mmHg 45%
    16:00 +36°C° 0.1 mm 5 mps 728 mmHg 45%
    17:00 +36°C° 0.1 mm 5 mps 728 mmHg 45%
    18:00 +36°C° 0.1 mm 5 mps 728 mmHg 47%
    19:00 +35°C° 0.1 mm 5 mps 728 mmHg 50%
    20:00 +34°C° 0.1 mm 5 mps 728 mmHg 52%
    21:00 +34°C° 0.1 mm 6 mps 729 mmHg 54%
    22:00 +33°C° 0.1 mm 6 mps 729 mmHg 57%
    23:00 +33°C° 0.1 mm 6 mps 729 mmHg 59%
    Show more